FW5335 Weather Reports


time (UTC)temp
C
wind
direction
speed
KPH
gust
KPH
rain 1hr
cm
rain 24hr
cm
rain mn
cm
humidity
%
barometer
mb
20260902194518 19 225 11.3 20.9 0.00 0.03 0.03 79 1017.8
20260902193539 19 248 12.9 24.1 0.00 0.03 0.03 79 1017.7
20260902192521 20 225 11.3 19.3 0.00 0.03 0.03 79 1017.9
20260902191519 20 225 11.3 20.9 0.00 0.03 0.03 79 1017.9
20260902190521 20 225 11.3 19.3 0.00 0.03 0.03 78 1017.9
20260902185519 20 248 9.7 17.7 0.00 0.03 0.03 78 1017.9
20260902184520 20 248 8.0 16.1 0.00 0.03 0.03 77 1017.9
20260902183520 20 225 9.7 20.9 0.00 0.03 0.03 77 1017.9
20260902182522 20 225 12.9 24.1 0.00 0.03 0.03 77 1017.8
20260902181527 20 225 9.7 22.5 0.00 0.03 0.03 77 1017.6
20260902180522 21 248 12.9 22.5 0.00 0.03 0.03 76 1017.5
20260902175518 21 225 12.9 22.5 0.00 0.03 0.03 76 1017.7
20260902174521 21 225 14.5 25.7 0.00 0.03 0.03 76 1017.9
20260902173519 21 225 12.9 22.5 0.00 0.03 0.03 76 1017.7
20260902172519 21 225 14.5 24.1 0.00 0.03 0.03 76 1017.7
20260902171540 21 225 16.1 29.0 0.00 0.03 0.03 76 1017.4
20260902170518 21 248 17.7 30.6 0.00 0.03 0.03 76 1017.6
20260902165518 21 248 11.3 22.5 0.00 0.03 0.03 77 1017.6
20260902164520 21 248 16.1 27.4 0.00 0.03 0.03 77 1017.6
20260902163519 21 248 17.7 32.2 0.00 0.03 0.03 77 1017.5
20260902162519 21 248 16.1 27.4 0.00 0.03 0.03 79 1017.5
20260902161539 21 248 8.0 17.7 0.00 0.03 0.03 81 1017.5
20260902160519 21 225 11.3 19.3 0.00 0.03 0.03 81 1017.5
20260902155517 21 225 12.9 25.7 0.00 0.03 0.03 82 1017.3
20260902154518 21 225 9.7 19.3 0.00 0.03 0.03 85 1017.3
20260902153540 21 225 9.7 17.7 0.00 0.03 0.03 83 1017.4
20260902152519 21 225 14.5 25.7 0.00 0.03 0.03 80 1017.5
20260902151519 22 225 9.7 22.5 0.00 0.03 0.03 78 1017.6
20260902150519 22 225 12.9 24.1 0.00 0.03 0.03 77 1017.5
20260902145520 22 203 12.9 20.9 0.00 0.03 0.03 76 1017.4
20260902144519 22 203 17.7 29.0 0.00 0.03 0.03 75 1017.6
20260902143520 22 203 14.5 25.7 0.00 0.03 0.03 75 1017.7
20260902142538 23 203 17.7 37.0 0.00 0.03 0.03 72 1017.6
20260902141521 23 225 17.7 35.4 0.00 0.03 0.03 71 1017.8
20260902140520 23 203 20.9 37.0 0.00 0.03 0.03 71 1017.8
20260902135539 23 203 16.1 30.6 0.00 0.03 0.03 71 1017.8
20260902134521 23 203 19.3 33.8 0.00 0.03 0.03 73 1017.7
20260902133536 23 203 17.7 30.6 0.00 0.03 0.03 72 1017.8
20260902132516 22 203 14.5 25.7 0.00 0.03 0.03 74 1018.0
20260902131517 22 203 19.3 32.2 0.00 0.03 0.03 76 1018.2
20260902130540 21 203 17.7 35.4 0.00 0.03 0.03 75 1018.2
20260902125520 21 203 17.7 29.0 0.00 0.03 0.03 76 1018.2
20260902124540 21 203 17.7 38.6 0.00 0.03 0.03 76 1018.1
20260902123538 21 203 17.7 35.4 0.00 0.03 0.03 76 1018.0
20260902122520 21 203 20.9 38.6 0.00 0.03 0.03 75 1018.2
20260902121520 21 203 17.7 35.4 0.00 0.03 0.03 76 1018.4
20260902120519 21 203 19.3 33.8 0.00 0.03 0.03 75 1018.3
20260902115518 21 203 22.5 41.8 0.00 0.03 0.03 77 1018.5
20260902114524 21 203 14.5 25.7 0.00 0.03 0.03 78 1018.7
20260902113520 20 203 16.1 33.8 0.00 0.03 0.03 81 1018.5
20260902112526 20 203 16.1 30.6 0.00 0.03 0.03 79 1018.7
20260902111526 20 203 20.9 32.2 0.00 0.03 0.03 78 1018.6
20260902110519 20 203 20.9 41.8 0.00 0.03 0.03 80 1018.9
20260902105549 20 225 14.5 27.4 0.00 0.03 0.03 77 1019.1
20260902104527 20 203 19.3 32.2 0.00 0.03 0.03 76 1019.0
20260902103518 20 203 16.1 37.0 0.00 0.03 0.03 76 1018.9
20260902102523 20 225 16.1 32.2 0.00 0.03 0.03 77 1018.9
20260902101522 20 225 14.5 27.4 0.00 0.03 0.03 79 1019.1
20260902100520 19 203 16.1 33.8 0.00 0.03 0.03 79 1019.0
20260902095519 19 203 12.9 29.0 0.00 0.03 0.03 79 1019.1
20260902094519 18 203 11.3 22.5 0.00 0.03 0.03 81 1019.1
20260902093523 18 225 12.9 27.4 0.00 0.03 0.03 82 1019.1
20260902092522 18 203 14.5 27.4 0.00 0.03 0.03 82 1019.1
20260902091518 18 203 12.9 20.9 0.00 0.03 0.03 84 1018.9
20260902090520 17 203 11.3 17.7 0.00 0.03 0.03 87 1019.2
20260902085523 17 203 16.1 27.4 0.03 0.03 0.03 86 1019.5
20260902084539 17 203 11.3 17.7 0.03 0.03 0.03 87 1019.5
20260902083518 16 203 6.4 14.5 0.03 0.03 0.03 87 1019.4
20260902082519 16 225 4.8 9.7 0.03 0.03 0.03 87 1019.4
20260902081602 17 225 8.0 14.5 0.03 0.03 0.03 88 1019.4
20260902080518 17 203 8.0 14.5 0.03 0.03 0.03 88 1019.5
20260902075521 17 225 9.7 19.3 0.00 0.00 0.00 87 1019.5
20260902074521 17 203 11.3 22.5 0.00 0.00 0.00 87 1019.4
20260902073524 17 225 9.7 19.3 0.00 0.00 0.00 86 1019.4
20260902072520 17 203 11.3 20.9 0.00 0.00 0.00 86 1019.4
20260902071520 17 203 6.4 9.7 0.00 0.00 0.00 87 1019.3
20260902070520 16 203 9.7 17.7 0.00 0.00 0.00 87 1019.6
20260902065520 16 203 9.7 19.3 0.00 0.00 0.00 88 1019.6
20260902064519 16 203 6.4 12.9 0.00 0.00 0.00 88 1019.5
20260902063520 16 203 4.8 8.0 0.00 0.00 0.00 88 1019.5
20260902062520 16 203 9.7 19.3 0.00 0.00 0.00 88 1019.5
20260902060542 16 203 4.8 9.7 0.00 0.00 0.00 87 1019.3
20260902055520 16 203 8.0 17.7 0.00 0.00 0.00 87 1019.5
20260902054520 16 203 8.0 14.5 0.00 0.00 0.00 87 1019.6
20260902053520 16 203 6.4 12.9 0.00 0.00 0.00 87 1019.6
20260902052520 15 225 6.4 11.3 0.00 0.00 0.00 88 1019.6
20260902051541 15 225 6.4 14.5 0.00 0.00 0.00 89 1019.5
20260902050522 15 225 4.8 9.7 0.00 0.00 0.00 90 1019.5
20260902045518 15 0.0 3.2 0.00 0.00 0.00 89 1019.5
20260902044521 15 225 1.6 3.2 0.00 0.00 0.00 89 1019.5
20260902043518 15 0.0 1.6 0.00 0.00 0.00 89 1019.6
20260902042521 15 0.0 3.2 0.00 0.00 0.00 89 1019.7
20260902041519 15 225 1.6 3.2 0.00 0.00 0.00 88 1019.7
20260902040519 15 0.0 0.0 0.00 0.00 0.00 88 1019.8
20260902035520 15 0.0 4.8 0.00 0.00 0.00 88 1020.0
20260902034519 15 0.0 3.2 0.00 0.00 0.00 89 1020.0
20260902033519 15 0.0 3.2 0.00 0.00 0.00 89 1020.1
20260902032537 15 203 1.6 3.2 0.00 0.00 0.00 89 1020.3
20260902031519 15 203 1.6 4.8 0.00 0.00 0.00 89 1020.3
20260902030520 14 203 1.6 3.2 0.00 0.00 0.00 89 1020.3
20260902025539 14 0.0 0.0 0.00 0.00 0.00 88 1020.5
20260902024520 14 0.0 1.6 0.00 0.00 0.00 88 1020.4
20260902023520 14 0.0 1.6 0.00 0.00 0.00 88 1020.6
20260902022518 14 0.0 0.0 0.00 0.00 0.00 89 1020.7
20260902021518 14 0.0 1.6 0.00 0.00 0.00 88 1020.8
20260902020520 14 203 1.6 3.2 0.00 0.00 0.00 89 1020.7
20260902015523 14 0.0 1.6 0.00 0.00 0.00 88 1020.7
20260902014520 14 0.0 3.2 0.00 0.00 0.00 88 1021.0
20260902013520 14 203 1.6 3.2 0.00 0.00 0.00 88 1021.2
20260902012520 14 0.0 1.6 0.00 0.00 0.00 87 1021.2
20260902011543 14 0.0 0.0 0.00 0.00 0.00 86 1021.3
20260902010517 14 0.0 0.0 0.00 0.00 0.00 85 1021.3
20260902005517 15 0.0 1.6 0.00 0.00 0.00 85 1021.3
20260902004517 15 0.0 0.0 0.00 0.00 0.00 85 1021.3
20260902003517 15 0.0 0.0 0.00 0.00 0.00 85 1021.4
20260902002520 15 0.0 0.0 0.00 0.00 0.00 85 1021.4
20260902001519 15 0.0 0.0 0.00 0.00 0.00 85 1021.5
20260902000517 15 203 1.6 3.2 0.00 0.00 0.00 84 1021.6
20260901235517 15 0.0 0.0 0.00 0.00 0.00 84 1021.6
20260901234517 15 0.0 3.2 0.00 0.00 0.00 83 1021.7
20260901233520 15 203 1.6 3.2 0.00 0.00 0.00 83 1021.9
20260901232537 15 203 1.6 3.2 0.00 0.00 0.00 82 1021.9
20260901231519 15 0.0 3.2 0.00 0.00 0.00 82 1021.9
20260901230521 15 0.0 1.6 0.00 0.00 0.00 81 1021.6
20260901225520 16 0.0 1.6 0.00 0.00 0.00 81 1021.4
20260901224517 16 203 1.6 3.2 0.00 0.00 0.00 81 1021.6
20260901223519 16 203 1.6 4.8 0.00 0.00 0.00 81 1021.3
20260901222517 16 203 1.6 4.8 0.00 0.00 0.00 80 1021.4
20260901221527 16 225 3.2 6.4 0.00 0.00 0.00 80 1021.3
20260901220523 16 225 3.2 6.4 0.00 0.00 0.00 80 1021.2
20260901215521 16 203 3.2 4.8 0.00 0.00 0.00 79 1021.3
20260901214624 16 203 3.2 6.4 0.00 0.00 0.00 79 1021.4
20260901213525 16 203 3.2 8.0 0.00 0.00 0.00 79 1021.6
20260901212521 16 203 3.2 4.8 0.00 0.00 0.00 78 1021.5
20260901211540 16 225 4.8 8.0 0.00 0.00 0.00 78 1021.6
20260901210517 16 225 4.8 8.0 0.00 0.00 0.00 78 1021.6
20260901205520 16 203 4.8 8.0 0.00 0.00 0.00 77 1021.8
20260901204523 16 225 3.2 9.7 0.00 0.00 0.00 77 1021.8
20260901203519 16 225 3.2 8.0 0.00 0.00 0.00 77 1021.8
20260901202518 16 225 3.2 6.4 0.00 0.00 0.00 77 1021.8
20260901201517 17 225 4.8 9.7 0.00 0.00 0.00 76 1021.9
20260901200520 17 225 3.2 6.4 0.00 0.00 0.00 76 1021.6
20260901195518 17 225 3.2 6.4 0.00 0.00 0.00 75 1021.6